Regional Weather Roundup
Issued by NWS

Home | Current Version | Previous Version | Text Only | Print | Product List | Glossary On
Versions: 1 2 3 4 5 6 7 8 9 10 11 12 13 14 15 16 17 18 19 20 21 22 23 24 25 26 27 28 29 30 31 32 33 34 35 36 37 38 39 40 41 42 43 44 45 46 47 48 49 50
602
ASUS44 KLUB 111501
RWRTX
WEST TEXAS WEATHER ROUNDUP
NATIONAL WEATHER SERVICE LUBBOCK TX
900 AM CST THU FEB 11 2016

NOTE: "FAIR" INDICATES FEW OR NO CLOUDS BELOW 12,000 FEET WITH NO
SIGNIFICANT WEATHER AND/OR OBSTRUCTIONS TO VISIBILITY.

TXZ004-006>008-010-012-014-016-OKZ002-111600-
TEXAS PANHANDLE/OKLAHOMA PANHANDLE

CITY           SKY/WX    TMP DP  RH WIND       PRES   REMARKS
AMARILLO       SUNNY     41  24  51 N7        30.22R
BORGER         SUNNY     40  26  57 NW3       30.23R
CANADIAN       SUNNY     38  31  75 CALM      30.21R
DALHART        CLOUDY    38  20  48 N5        30.25R WCI  34
DUMAS          CLOUDY    35  23  62 N6        30.24R WCI  29
GUYMON         SUNNY     38  25  59 NW3       30.22R
$$

TXZ026-029-035-045-048-111600-
SOUTHERN PANHANDLE/SOUTH PLAINS/ROLLING PLAINS

CITY           SKY/WX    TMP DP  RH WIND       PRES   REMARKS
CHILDRESS      SUNNY     47  26  44 N13       30.19R
LUBBOCK        MOSUNNY   44  22  41 N13       30.15R
SNYDER           N/A     47  26  44 W8        30.15R
$$

TXZ052-054-060>062-072-078-127-140-154-169-111600-
PERMIAN BASIN/CONCHO VALLEY/BIG COUNTRY/EDWARDS PLATEAU

CITY           SKY/WX    TMP DP  RH WIND       PRES   REMARKS
ABILENE        SUNNY     58  30  34 N6        30.13R
BROWNWOOD      SUNNY     46  30  53 CALM      30.14S
JUNCTION       SUNNY     44  29  55 W3        30.18R HAZE
MIDLAND        SUNNY     50  26  39 W6        30.15R
ODESSA         SUNNY     47  22  37 W6        30.16R
SAN ANGELO     SUNNY     51  28  41 S5        30.14R
WINK           CLOUDY    41  22  46 N3        30.18R
$$

TXZ055-058-074-075-080-082-111600-
FAR WEST/SOUTHWEST MOUNTAINS/TRANS PECOS

CITY           SKY/WX    TMP DP  RH WIND       PRES   REMARKS
DRYDEN           N/A     60  19  20 W10       30.16R
EL PASO        PTSUNNY   44  20  38 CALM      30.26R
FORT STOCKTON  SUNNY     57  21  24 SW13      30.18R
GUADALUPE PASS CLOUDY    50  15  24 W12       30.28R
MARFA          CLOUDY    45  15  30 CALM      30.29R
PRESIDIO       FAIR      49  17  28 CALM      30.25S
$$

TXZ014-016-019-021>030-083-111600
TEXAS TECH WEST TEXAS MESONET/TEXAS PANHANDLE/NORTHERN SOUTH PLAINS

CITY           SKY/WX    TMP DP  RH WIND       PRES   REMARKS
ABERNATHY 5ENE   N/A     41  24  51 N14       30.17R
AMARILLO 9NNE    N/A     34  22  62 NW2       30.22S
AMARILLO 7SSE    N/A     41  24  50 N8        30.22R
AMHERST 1NE      N/A     39  20  47 N15       30.20R WCI  30
BOOTLEG 11WNW    N/A     41  18  38 NW10      30.24S
CANADIAN 6E      N/A     39  29  66 NW2       30.18R
CLARENDON 2WSW   N/A     43  27  51 N9        30.19S
$$

TXZ033>036-039>041-045>048-111600
TEXAS TECH WEST TEXAS MESONET/SOUTH PLAINS

CITY           SKY/WX    TMP DP  RH WIND       PRES   REMARKS
AIKEN 3WSW       N/A     38  23  54 N12       30.19R WCI  30
ANDREWS 2NE      N/A     48  18  30 NW12      30.16R
ANTON 6SSW       N/A     39  22  50 NW10      30.18R WCI  32
BROWNFIELD 2S    N/A     41  18  39 N15       30.16R
$$

TXZ031-032-036>038-042>044-111600-
TEXAS TECH WEST TEXAS MESONET/ROLLING PLAINS

CITY           SKY/WX    TMP DP  RH WIND       PRES   REMARKS
ASPERMONT 3NE    N/A     48  23  37 NW8       30.14R
LK A HENRY 1NW   N/A     48  20  33 NE8       30.15R
$$

TXZ052-054-060>062-072-078-127-140-154-169-111600-
TEXAS TECH WEST TEXAS MESONET/PERMIAN BASIN/
CONCHO VALLEY/BIG COUNTRY/EDWARDS PLATEAU

CITY           SKY/WX    TMP DP  RH WIND       PRES   REMARKS
SAN ANGELO 7NW   N/A     56  25  31 CALM      30.15R
$$

TXZ055-058-074-075-080-082-111600-
TEXAS TECH WEST TEXAS MESONET/FAR WEST/SOUTHWEST MOUNTAINS/TRANS PECOS

CITY           SKY/WX    TMP DP  RH WIND       PRES   REMARKS
$$




USA.gov is the U.S. government's official web portal to all federal, state and local government web resources and services.